Regional Weather Roundup
Issued by NWS Charleston, SC

Current Version | Previous Version | Graphics & Text | Print | Product List | Glossary On
Versions: 1 2 3 4 5 6 7 8 9 10 11 12 13 14 15 16 17 18 19 20 21 22 23 24 25 26 27 28 29 30 31 32 33 34 35 36 37 38 39 40 41 42 43 44 45 46 47 48 49 50
000 ASUS42 KCHS 291526 RWRCHS REGIONAL WEATHER ROUNDUP NATIONAL WEATHER SERVICE CHARLESTON SC 1000 AM EST THU JAN 29 2015 NOTE: "FAIR" INDICATES FEW OR NO CLOUDS BELOW 12,000 FEET WITH NO SIGNIFICANT WEATHER AND/OR OBSTRUCTIONS TO VISIBILITY. NOT ALL STATIONS ARE QUALITY CONTROLLED BY THE NATIONAL WEATHER SERVICE. USE DATA WITH CAUTION...ESPECIALLY DEWPOINT OBSERVATIONS. SCZ027-030-031-034>040-042>050-291600- ...SOUTHEAST SOUTH CAROLINA... CITY SKY/WX TMP DP RH WIND PRES REMARKS N CHARLESTON MOSUNNY 46 28 49 VRB3 30.38R WATERFRONT PRK N/A 48 N/A N/A CALM N/A MOUNT PLEASANT FAIR N/A N/A N/A CALM 30.38R PINOPOLIS N/A 45 21 39 CALM 30.31S MONCKS CORNER FAIR 46 21 36 CALM 30.38S SUMMERVILLE FAIR 45 32 61 CALM 30.39S BEAUFORT MCAS PTSUNNY 48 34 58 N3 30.39R BEAUFORT ARPT FAIR 46 37 71 N3 30.38R HILTON HEAD IS MOSUNNY 48 36 61 N5 30.39R WALTERBORO MOSUNNY 48 18 29 SE3 30.39S ALLENDALE FAIR 45 28 53 SE3 30.37F ...SOUTHERN MIDLANDS AND PEE DEE... CITY SKY/WX TMP DP RH WIND PRES REMARKS GEORGETOWN NOT AVBL KINGSTREE NOT AVBL ORANGEBURG SUNNY 42 31 64 CALM 30.38S BARNWELL FAIR 45 30 57 S6 30.37F AIKEN FAIR 45 28 53 S7 30.38R MANNING FAIR 45 32 61 CALM 30.38F COLUMBIA PTSUNNY 40 27 59 CALM 30.36F SUMTER MOSUNNY 43 27 53 S8 30.35F FLORENCE PTSUNNY 41 28 60 S7 30.36F MYRTLE BEACH MOSUNNY 43 27 52 NE8 30.40S N MYRTLE BEACH SUNNY 42 22 44 NE5 30.38S $$ GAZ063-065-086>088-099>101-113>116-118-119-134>141-150-291600- ...SOUTHEAST GEORGIA... CITY SKY/WX TMP DP RH WIND PRES REMARKS SAVANNAH ARPT PTSUNNY 48 36 63 CALM 30.38R HUNTER AAF MOSUNNY 48 36 63 N2 30.36R FORT STEWART MOSUNNY 47 35 63 CALM 30.36R STATESBORO SUNNY 48 34 59 SE6 30.38F SYLVANIA SUNNY 47 33 59 S5 30.38F CLAXTON FAIR 46 36 66 CALM 30.38S ...CSRA...CENTRAL AND FAR SOUTHEAST GEORGIA... CITY SKY/WX TMP DP RH WIND PRES REMARKS THOMSON SUNNY 48 31 50 S8 30.39S AUGUSTA-BUSH SUNNY 38 32 79 CALM 30.37F AUGUSTA-DANIEL SUNNY 42 26 53 S5 30.36S SWAINSBORO FAIR 48 19 32 SE8 30.37S VIDALIA SUNNY 48 34 57 S7 30.37S EASTMAN FAIR 47 36 64 S6 30.39S HAZLEHURST FAIR 50 36 58 S3 30.36S ALMA SUNNY 48 36 63 CALM 30.37R WAYCROSS SUNNY 53 41 63 SE5 30.37S JESUP FAIR 54 41 62 CALM 30.38R BAXLEY FAIR 50 36 57 S3 30.36F BRUNSWICK MOSUNNY 54 41 62 E6 30.38R SAINT SIMONS MOSUNNY 52 41 66 CALM 30.36S $$ SCZ027-028-034-036>038-045-046-048>050-GAZ119-141-291600- ...LAKE AND SUPPLEMENTAL COASTAL OBSERVATIONS... STATION/POSITION TIME TEMP WIND PRES WAVE SWELL AIR SEA DIR/SP/G HT/PER HT/PER/DIR (UTC) (F) (DEG/KT/KT) (MB) (FT/S) (FT/S/D) UPR LAKE MARION NOT AVBL WINYAH BAY 1445 45 40/ 4 1028.0R LAKE MURRAY 1400 44 180/ 8/ 9 1027.1S ACE BASIN NERRS NOT AVBL FORT PULASKI 1500 47 51 40/ 5/ 6 1028.9R SAPELO ISLAND 1500 51 350/ 4 1028.0S $$ ANZ835-935-AMZ111-154-330-350-352-354-370-450-454-472-291600- ...C-MAN AND BUOY OBSERVATIONS... STATION/POSITION TIME TEMP WIND PRES WAVE SWELL AIR SEA DIR/SP/G HT/PER HT/PER/DIR (UTC) (F) (DEG/KT/KT) (MB) (FT/S) (FT/S/D) BUOY 41004 1450 53 67 50/ 4/ 8 1027.9R 4/ 9 3/ 9 BUOY 41008 1450 53 53 40/ 6/ 8 1028.2R 3/11 3/ 80/11 FOLLY BEACH CMAN 1500 47 40/ 6/ 7 1029.1R CAPERS NEARSHORE 1400 47 50/ 8/ 10 N/A FRIPP NEARSHORE 1400 49 30/ 6/ 8 1027.2R STATION/POSITION TIME TEMP WIND PRES WAVE SWELL AIR SEA DIR/SP/G HT/PER HT/PER/DIR (UTC) (F) (DEG/KT/KT) (MB) (FT/S) (FT/S/D) 5E ST. MARYS GA NOT AVBL FRYING PAN BUOY 1450 48 65 40/ 6/ 10 1029.0S 4/ 7 3/ 80/ 7 BUOY 41025 1450 39 71 340/ 12/ 16 1027.9R 6/11 5/ 40/11 CAPE LOOKOUT NC 1500 37 350/ 4/ 6 1028.6R BUOY 41002 1450 56 72 350/ 12/ 17 1027.2R 8/ 9 7/ 20/ 9 BUOY 41010 1420 63 75 70/ 10/ 12 1026.5R ST AUGUSTINE FL 1500 54 350/ 8/ 10 1028.0R $$

USA.gov is the U.S. government's official web portal to all federal, state and local government web resources and services.